Simultaneous Nadir Overpasses (SNOs) Predictions

Prediction of SNOs between GOES-15 and METOP-C Satellite Orbit:

Table of predicted SNOs for the next 14.0 days since TLE Epoch: 4/30/2023
Index Date Time (GOES-15) GOES-15 Lat,Lon METOP-C Lat,Lon Distance(km) Time Diff (sec)
1 04/30/2023 18:50:43 -0.22,-141.14 -0.36,-140.47 75.55 80
2 05/02/2023 07:12:26 0.23,-141.87 -0.51,-145.10 369.32 80
3 05/03/2023 06:49:08 0.23,-142.33 0.73,-140.14 250.37 80
4 05/04/2023 19:10:42 -0.23,-143.04 0.12,-144.74 192.48 80
5 05/05/2023 18:47:24 -0.23,-143.50 -1.07,-139.76 426.95 80
6 05/07/2023 07:09:06 0.24,-144.22 0.19,-144.39 19.67 80
7 05/08/2023 19:28:00 -0.24,-144.91 0.69,-148.98 464.61 80
8 05/09/2023 19:04:42 -0.25,-145.36 -0.56,-144.01 153.58 80
9 05/11/2023 07:26:24 0.25,-146.06 -0.32,-148.64 294.18 80
10 05/12/2023 07:03:06 0.25,-146.51 0.88,-143.66 323.34 80
11 05/13/2023 19:24:39 -0.25,-147.18 -0.01,-148.26 122.42 80
